Temp
-6 -6 -6 -6 -6 -6 -6 -6 -6 -6 -6 -6 -5 -5 -6 -6 -6 -5 -5 -5 -5 -6 -6 -6 -7 -7 -7 -7 -7 -7 -7 -7 -7 -8 -8 -8 -8 -8 -8 -8 -8 -8 -7
-6 -5 -5 -6 -6 -5 -6 -6 -6 -5 -6 -6 -6 -6 -5 -6 -6 -6 -5 -5 -5 -5 -6 -6 -6 -6 -6 -7 -7 -7 -7 -7 -7 -7 -7 -7 -7 -8 -8 -7 -7 -7 -8
-6 -6 -5 -5 -6 -6 -6 -5 -5 -5 -5 -6 -6 -6 -6 -5 -5 -6 -5 -5 -5 -5 -5 -6 -6 -6 -6 -6 -6 -6 -7 -7 -7 -7 -7 -7 -7 -7 -7 -8 -7 -7 -7
-6 -6 -6 -5 -5 -6 -5 -5 -5 -5 -5 -5 -5 -6 -5 -5 -5 -5 -6 -5 -5 -5 -5 -6 -6 -6 -6 -6 -6 -6 -6 -6 -6 -6 -7 -7 -7 -7 -7 -8 -7 -7 -7
-6 -6 -6 -6 -6 -6 -6 -5 -5 -5 -5 -5 -5 -5 -5 -5 -5 -5 -5 -5 -6 -5 -5 -5 -6 -6 -6 -6 -6 -6 -6 -6 -6 -6 -6 -6 -6 -6 -7 -7 -7 -8 -7
-7 -7 -7 -6 -7 -6 -6 -6 -5 -5 -5 -5 -4 -5 -5 -5 -5 -5 -5 -6 -6 -6 -6 -6 -6 -6 -6 -6 -6 -6 -6 -6 -7 -7 -7 -6 -6 -6 -6 -6 -7 -7 -7
-7 -7 -7 -7 -6 -6 -6 -6 -6 -5 -5 -5 -5 -5 -5 -5 -5 -5 -5 -5 -6 -6 -6 -6 -6 -6 -6 -6 -6 -6 -6 -6 -6 -6 -6 -6 -6 -5 -6 -6 -6 -7 -7
-7 -7 -7 -7 -7 -7 -7 -6 -7 -6 -5 -5 -5 -5 -5 -5 -5 -5 -5 -5 -5 -6 -6 -6 -6 -6 -6 -6 -6 -6 -6 -6 -7 -6 -6 -6 -6 -6 -6 -6 -6 -6 -7
-8 -8 -7 -7 -6 -7 -7 -7 -6 -6 -6 -6 -6 -5 -5 -6 -5 -5 -5 -5 -5 -5 -6 -5 -6 -6 -6 -6 -6 -6 -6 -7 -6 -5 -6 -6 -6 -6 -5 -5 -6 -6 -7
-8 -8 -8 -7 -7 -7 -7 -7 -7 -7 -6 -6 -6 -6 -6 -6 -6 -6 -5 -5 -5 -5 -5 -5 -6 -6 -6 -6 -6 -6 -6 -7 -6 -5 -6 -6 -6 -6 -5 -5 -5 -6 -6
-9 -8 -8 -8 -7 -7 -7 -7 -6 -7 -6 -6 -6 -6 -6 -6 -6 -6 -6 -5 -5 -5 -5 -5 -6 -6 -6 -6 -6 -6 -6 -6 -6 -5 -6 -6 -6 -6 -5 -5 -6 -6 -6
-9 -8 -9 -10 -9 -8 -7 -7 -7 -6 -5 -6 -7 -7 -6 -6 -6 -6 -6 -5 -6 -5 -6 -6 -6 -6 -6 -5 -5 -6 -6 -6 -6 -6 -6 -6 -6 -5 -5 -6 -6 -6 -6
-9 -8 -9 -8 -9 -8 -8 -7 -7 -6 -6 -7 -6 -6 -7 -7 -6 -6 -6 -6 -6 -5 -6 -6 -6 -6 -6 -5 -5 -6 -6 -6 -6 -6 -6 -6 -6 -6 -6 -6 -6 -6 -6
-9 -9 -9 -9 -9 -9 -8 -8 -8 -7 -6 -6 -6 -7 -7 -7 -7 -6 -6 -6 -6 -6 -5 -5 -6 -6 -5 -5 -5 -5 -5 -6 -6 -6 -6 -6 -6 -6 -6 -6 -6 -6 -6
-11 -10 -9 -9 -9 -9 -8 -8 -7 -7 -8 -7 -7 -7 -7 -7 -7 -6 -6 -6 -6 -5 -6 -5 -5 -6 -6 -6 -5 -6 -6 -6 -6 -6 -6 -6 -6 -6 -6 -6 -6 -6 -7
-10 -10 -10 -9 -9 -8 -8 -8 -7 -8 -7 -7 -7 -6 -7 -7 -7 -6 -6 -6 -6 -6 -5 -5 -5 -6 -6 -6 -6 -6 -6 -6 -6 -6 -5 -6 -6 -6 -6 -6 -6 -6 -7
-11 -11 -10 -10 -9 -9 -8 -8 -9 -8 -7 -8 -8 -7 -7 -8 -7 -7 -7 -7 -6 -6 -6 -5 -6 -6 -6 -6 -6 -6 -6 -6 -6 -5 -5 -5 -5 -6 -6 -6 -7 -7 -7
-11 -12 -11 -10 -10 -10 -9 -9 -8 -8 -8 -8 -7 -8 -7 -7 -7 -7 -7 -7 -7 -7 -7 -6 -6 -7 -7 -6 -6 -6 -6 -6 -6 -6 -6 -6 -6 -6 -6 -6 -7 -7 -7
-12 -11 -12 -11 -11 -10 -10 -10 -9 -9 -9 -8 -9 -8 -8 -7 -7 -7 -7 -7 -7 -7 -7 -6 -7 -7 -7 -6 -6 -6 -6 -6 -6 -6 -6 -6 -6 -6 -6 -6 -7 -7 -7
-12 -12 -12 -12 -11 -11 -11 -9 -10 -9 -9 -9 -10 -10 -9 -8 -7 -7 -7 -7 -7 -8 -7 -7 -7 -7 -6 -7 -7 -7 -7 -6 -6 -7 -7 -6 -6 -6 -6 -7 -7 -7 -8
-14 -13 -12 -12 -12 -12 -10 -10 -10 -10 -10 -10 -9 -9 -9 -9 -8 -8 -8 -8 -7 -8 -8 -7 -7 -7 -7 -7 -7 -7 -7 -7 -7 -7 -7 -7 -6 -6 -6 -7 -7 -7 -8
-18 -16 -14 -13 -12 -11 -12 -10 -10 -11 -10 -10 -10 -10 -9 -9 -9 -8 -8 -7 -8 -8 -8 -7 -6 -6 -7 -7 -7 -8 -8 -7 -7 -7 -7 -7 -7 -7 -7 -7 -7 -7 -8
-19 -18 -17 -15 -13 -12 -12 -12 -11 -12 -11 -10 -10 -10 -9 -9 -9 -8 -8 -7 -7 -7 -7 -7 -7 -7 -7 -7 -7 -7 -7 -8 -8 -8 -8 -8 -8 -8 -8 -8 -8 -8 -8
-19 -19 -19 -17 -15 -14 -12 -12 -13 -12 -12 -10 -11 -10 -10 -10 -10 -9 -9 -8 -8 -8 -8 -8 -8 -7 -7 -7 -7 -8 -8 -8 -8 -8 -8 -8 -8 -8 -8 -8 -8 -8 -7
-19 -19 -19 -19 -17 -16 -15 -13 -13 -12 -11 -11 -11 -11 -11 -11 -11 -10 -9 -10 -10 -9 -9 -8 -8 -8 -7 -8 -8 -8 -8 -8 -8 -8 -8 -8 -8 -8 -8 -8 -7 -8 -8
-20 -20 -19 -19 -18 -17 -16 -14 -13 -12 -11 -11 -12 -12 -11 -11 -11 -11 -10 -10 -10 -10 -10 -9 -9 -9 -8 -9 -9 -8 -8 -8 -8 -8 -8 -8 -8 -8 -9 -8 -7 -7 -7
Height
5922 5926 5931 5935 5938 5941 5943 5946 5949 5951 5952 5953 5955 5956 5957 5959 5961 5963 5963 5964 5966 5968 5969 5970 5972 5973 5974 5975 5976 5977 5978 5979 5980 5981 5981 5982 5981 5980 5980 5979 5978 5977 5975
5918 5920 5924 5928 5933 5937 5940 5941 5945 5947 5950 5952 5952 5954 5956 5957 5959 5961 5963 5964 5965 5966 5968 5969 5971 5972 5973 5974 5976 5977 5978 5979 5980 5980 5980 5980 5980 5980 5979 5978 5977 5976 5974
5912 5916 5919 5924 5927 5932 5935 5938 5940 5943 5945 5948 5951 5951 5952 5954 5956 5958 5961 5962 5963 5965 5967 5968 5970 5971 5972 5973 5974 5975 5976 5977 5978 5979 5979 5979 5979 5979 5977 5976 5975 5974 5973
5908 5911 5916 5919 5923 5925 5928 5931 5935 5938 5941 5944 5946 5948 5950 5951 5952 5954 5956 5959 5961 5962 5965 5966 5968 5968 5970 5971 5973 5974 5975 5976 5976 5977 5977 5977 5977 5977 5976 5975 5972 5971 5971
5901 5905 5910 5913 5916 5920 5923 5926 5929 5932 5935 5938 5942 5945 5947 5949 5951 5952 5952 5953 5956 5958 5961 5963 5965 5966 5968 5969 5971 5972 5972 5973 5974 5975 5974 5974 5974 5974 5974 5972 5971 5969 5968
5892 5896 5900 5903 5907 5912 5916 5919 5923 5927 5930 5932 5936 5939 5943 5946 5947 5949 5950 5950 5951 5954 5955 5958 5961 5963 5964 5966 5967 5968 5969 5970 5970 5971 5972 5971 5970 5970 5969 5968 5968 5967 5965
5883 5886 5889 5893 5898 5902 5906 5910 5916 5919 5922 5927 5930 5933 5937 5940 5942 5944 5946 5947 5948 5949 5951 5953 5955 5958 5959 5961 5962 5964 5965 5966 5967 5967 5967 5967 5966 5965 5966 5964 5963 5963 5962
5867 5874 5878 5884 5890 5894 5899 5903 5908 5911 5915 5919 5922 5925 5929 5933 5936 5939 5940 5941 5944 5946 5948 5948 5950 5952 5954 5956 5957 5959 5959 5960 5961 5961 5962 5962 5962 5961 5961 5960 5959 5958 5957
5862 5863 5868 5873 5879 5884 5889 5892 5896 5901 5904 5909 5913 5917 5921 5926 5928 5931 5932 5935 5938 5941 5942 5944 5945 5947 5949 5950 5952 5953 5954 5955 5955 5956 5957 5958 5957 5956 5956 5955 5954 5954 5953
5853 5857 5862 5865 5867 5872 5878 5882 5885 5887 5893 5897 5902 5907 5911 5916 5920 5923 5924 5927 5932 5935 5936 5939 5941 5942 5942 5943 5946 5948 5950 5948 5948 5951 5952 5952 5951 5950 5950 5951 5950 5948 5948
5841 5845 5849 5854 5856 5861 5866 5871 5874 5873 5881 5888 5892 5897 5901 5905 5909 5913 5915 5917 5923 5927 5929 5931 5934 5935 5936 5936 5938 5943 5945 5941 5941 5945 5946 5946 5945 5945 5944 5946 5945 5943 5942
5826 5830 5834 5840 5844 5849 5854 5860 5865 5867 5868 5875 5881 5885 5890 5894 5899 5903 5905 5907 5912 5917 5922 5923 5925 5928 5929 5930 5931 5936 5937 5935 5936 5937 5939 5939 5938 5938 5938 5939 5939 5938 5937
5810 5814 5818 5824 5829 5834 5841 5846 5851 5855 5857 5860 5867 5873 5878 5882 5886 5891 5894 5897 5899 5905 5912 5915 5916 5919 5921 5923 5925 5927 5928 5930 5931 5931 5931 5932 5931 5931 5932 5932 5933 5933 5932
5794 5800 5805 5811 5817 5821 5826 5832 5838 5839 5844 5848 5854 5861 5866 5869 5873 5878 5882 5885 5888 5893 5899 5903 5906 5909 5912 5914 5916 5919 5920 5922 5924 5925 5926 5925 5924 5924 5925 5924 5925 5925 5926
5778 5784 5789 5794 5801 5807 5812 5818 5823 5824 5829 5832 5839 5845 5850 5856 5864 5864 5865 5868 5874 5880 5884 5887 5895 5900 5903 5905 5907 5909 5910 5912 5914 5916 5917 5917 5917 5918 5917 5917 5918 5918 5918
5760 5767 5773 5780 5785 5791 5798 5802 5807 5811 5814 5820 5824 5830 5837 5842 5846 5849 5853 5858 5862 5864 5869 5877 5884 5888 5892 5894 5896 5897 5899 5901 5903 5904 5906 5908 5910 5910 5909 5908 5909 5909 5910
5742 5749 5757 5764 5770 5777 5784 5789 5793 5798 5802 5805 5810 5815 5820 5827 5831 5834 5838 5842 5844 5848 5859 5867 5871 5874 5878 5880 5883 5885 5887 5888 5890 5892 5895 5897 5899 5901 5900 5899 5898 5899 5900
5722 5730 5738 5746 5755 5761 5769 5775 5780 5785 5790 5793 5797 5801 5805 5812 5816 5819 5824 5826 5833 5837 5846 5852 5856 5858 5861 5865 5869 5872 5874 5875 5878 5880 5882 5885 5886 5887 5887 5888 5887 5887 5887
5701 5710 5718 5727 5735 5744 5753 5761 5766 5773 5777 5782 5783 5787 5791 5796 5802 5808 5813 5815 5818 5821 5829 5835 5839 5842 5846 5850 5854 5858 5861 5863 5865 5868 5870 5871 5872 5872 5873 5873 5873 5874 5874
5676 5687 5696 5705 5716 5724 5736 5744 5752 5759 5763 5768 5771 5777 5780 5785 5792 5796 5800 5803 5807 5808 5815 5821 5823 5827 5832 5836 5840 5844 5847 5849 5852 5854 5857 5858 5858 5859 5860 5860 5860 5860 5860
5650 5662 5673 5684 5696 5706 5719 5726 5737 5742 5749 5753 5759 5766 5768 5775 5779 5784 5788 5792 5796 5802 5804 5806 5807 5811 5816 5821 5825 5829 5833 5835 5838 5841 5843 5844 5845 5847 5847 5847 5848 5848 5846
5629 5638 5650 5662 5674 5689 5698 5708 5720 5727 5734 5739 5746 5752 5758 5760 5764 5771 5776 5779 5784 5788 5791 5793 5788 5796 5798 5805 5810 5814 5819 5823 5825 5828 5830 5831 5833 5834 5835 5835 5835 5835 5834
5613 5619 5629 5640 5652 5666 5678 5690 5699 5709 5718 5726 5733 5741 5746 5748 5751 5756 5762 5765 5770 5776 5779 5782 5785 5789 5793 5797 5800 5801 5803 5806 5810 5813 5816 5818 5820 5822 5822 5822 5822 5821 5820
5600 5605 5612 5621 5632 5645 5658 5672 5680 5695 5702 5710 5719 5725 5731 5735 5740 5745 5747 5749 5752 5759 5763 5767 5773 5778 5782 5784 5787 5789 5792 5794 5796 5800 5802 5804 5806 5808 5809 5809 5809 5806 5803
5587 5591 5597 5605 5616 5627 5640 5654 5665 5678 5686 5695 5703 5709 5714 5721 5727 5732 5738 5740 5743 5747 5751 5754 5760 5765 5767 5771 5774 5777 5780 5782 5784 5786 5788 5789 5789 5791 5792 5793 5792 5791 5787
5568 5576 5584 5591 5600 5611 5622 5635 5648 5658 5670 5679 5688 5694 5700 5706 5712 5719 5723 5728 5731 5734 5737 5740 5744 5748 5750 5756 5760 5763 5765 5768 5771 5772 5772 5773 5773 5773 5772 5772 5772 5772 5771
Wind_Speed
34 32 29 28 27 26 25 22 19 17 15 13 11 11 13 12 12 12 14 16 16 16 16 15 14 15 14 12 11 11 9 8 5 3 2 2 4 5 6 7 10 12 15
38 36 34 32 30 27 26 25 23 20 18 15 13 12 13 15 15 14 14 16 17 17 15 14 14 13 12 11 10 8 7 6 5 3 3 3 4 6 7 9 10 11 13
39 39 37 35 33 31 30 28 27 24 22 19 16 15 15 15 16 16 15 14 17 18 18 15 12 13 13 12 10 10 10 9 7 6 6 6 6 7 9 11 13 13 11
33 37 37 36 36 36 35 33 31 29 26 23 22 20 18 17 17 17 17 17 17 19 21 20 17 15 13 11 11 10 10 9 9 8 8 7 9 7 8 11 15 16 14
34 33 35 37 38 39 38 36 35 32 30 29 27 25 22 19 18 18 19 19 19 20 21 23 23 21 18 16 14 13 13 13 11 11 12 12 12 9 9 12 13 15 16
40 37 37 39 40 41 40 41 40 36 34 33 31 29 27 24 23 22 21 20 20 20 21 22 23 24 24 22 21 20 19 18 18 18 18 18 18 16 15 15 15 15 15
42 42 40 40 39 41 43 43 43 42 40 37 36 34 31 29 29 27 26 24 23 23 22 21 21 22 23 23 24 25 24 23 23 22 21 21 20 18 15 17 16 14 15
48 54 46 42 39 37 38 41 43 44 43 41 40 39 36 32 33 33 32 30 28 26 25 23 21 21 21 21 22 21 22 22 21 21 21 21 18 18 17 17 16 14 15
46 37 44 43 42 40 38 36 38 45 45 43 43 42 40 36 35 36 38 35 32 30 29 28 26 25 24 25 22 22 23 24 24 23 22 21 20 20 17 17 16 15 16
53 52 49 51 48 48 45 45 45 47 42 45 47 45 45 42 39 39 39 39 35 32 31 30 29 28 29 30 26 25 23 28 28 23 20 20 21 22 18 17 15 16 17
56 59 60 59 58 52 53 51 48 47 37 42 44 48 47 47 45 43 42 40 36 34 33 32 30 31 33 33 31 25 23 29 30 23 21 21 22 23 22 20 17 19 21
60 60 61 61 54 60 60 59 57 50 53 50 47 47 48 49 49 48 47 44 40 35 34 34 34 33 33 34 33 28 25 26 26 25 24 24 25 25 25 22 21 21 21
63 62 65 60 54 56 61 60 61 62 59 54 50 48 49 50 52 53 52 49 46 40 36 36 38 38 37 34 31 30 29 23 24 26 27 26 28 27 25 23 23 23 22
65 64 60 61 55 54 60 64 61 63 56 60 62 57 57 56 53 55 55 54 53 48 42 42 41 40 39 37 36 32 31 30 27 28 29 30 31 31 28 26 25 25 23
66 61 61 59 62 61 64 67 65 68 57 61 55 56 61 53 54 55 59 60 58 55 52 49 44 40 39 40 40 39 39 36 34 34 35 35 35 33 33 32 29 28 26
80 72 67 59 61 60 61 59 53 49 69 62 61 61 61 55 54 58 59 59 61 61 58 52 49 47 44 44 45 44 43 42 40 40 39 38 36 37 37 38 36 33 29
86 83 74 65 61 67 64 69 67 63 55 52 52 55 61 52 59 62 59 61 62 62 59 55 52 51 49 48 47 47 47 47 46 44 42 40 39 38 39 41 40 38 34
84 87 84 76 69 64 64 53 53 54 45 45 45 42 51 50 59 58 60 63 64 63 56 57 55 54 52 50 50 49 48 48 47 45 43 41 39 39 40 40 42 41 40
86 84 90 87 79 70 65 62 58 47 43 46 37 30 40 44 56 56 57 56 58 52 51 52 54 56 53 51 50 49 49 48 46 44 42 40 40 41 41 42 43 43 44
91 88 87 91 86 80 62 62 65 59 49 42 38 35 33 47 55 56 47 42 43 41 45 47 48 50 51 50 48 48 49 48 45 43 41 40 39 40 40 42 43 44 45
86 92 91 90 87 83 73 58 62 57 47 44 44 43 35 46 58 59 55 48 45 47 51 52 50 42 43 43 44 46 46 46 44 43 42 42 41 40 40 40 44 46 47
64 79 89 89 86 88 83 74 60 55 47 49 54 51 49 44 49 50 56 59 53 51 57 55 40 44 49 46 42 40 42 44 44 44 46 45 46 46 46 46 46 49 51
55 64 70 80 83 88 86 85 79 59 52 52 56 59 55 55 52 49 49 51 52 54 49 46 52 44 42 39 41 37 39 41 44 42 40 41 43 43 44 47 47 51 54
44 53 59 65 73 81 83 81 71 71 59 61 60 58 52 50 49 50 49 48 51 52 49 46 47 44 48 44 40 37 42 43 39 39 42 43 48 46 48 50 52 52 57
50 46 48 54 56 59 64 74 72 76 71 63 62 58 51 49 50 47 46 46 47 53 57 50 47 58 50 45 45 46 48 50 47 45 48 50 52 55 56 57 55 58 53
48 51 51 49 51 53 56 67 70 65 76 78 72 63 58 61 56 53 51 51 48 51 49 55 61 53 51 50 50 50 47 50 52 53 56 59 59 59 62 61 60 58 58
Wind_Direction
211 210 213 212 213 212 205 206 205 202 202 197 196 195 198 205 205 209 203 199 197 194 194 192 187 184 184 181 176 172 171 172 177 181 198 316 337 343 357 4 15 10 3
218 213 212 214 215 217 217 213 212 212 213 213 202 201 201 204 207 205 211 209 206 203 198 196 197 193 189 191 195 189 186 193 205 218 251 279 304 330 344 345 353 1 350
218 221 218 218 215 218 220 223 221 220 219 221 223 212 206 205 209 213 213 212 218 215 212 207 204 210 206 208 209 207 207 216 222 235 251 265 289 312 323 328 335 340 346
226 225 228 226 225 220 222 225 224 225 227 225 227 230 223 215 211 212 217 217 217 222 225 223 216 217 217 224 229 230 229 236 243 255 271 283 294 306 311 319 324 326 335
226 226 228 230 234 232 231 231 231 229 229 233 234 235 236 233 227 219 217 219 221 221 226 231 229 231 231 229 235 241 239 246 257 268 279 290 292 299 302 304 310 315 321
229 228 227 229 231 232 232 235 235 234 235 235 237 239 240 241 240 234 229 224 223 225 225 230 234 236 239 241 243 248 250 253 261 268 277 283 288 295 302 298 294 297 309
232 229 231 231 231 232 232 235 237 236 234 236 238 240 241 240 243 244 240 235 231 229 228 229 232 238 242 243 245 249 255 256 261 267 270 277 280 292 293 290 291 288 291
237 226 224 229 232 237 241 239 239 241 240 239 238 240 241 241 242 244 246 244 239 238 238 236 234 237 242 244 247 250 255 259 258 260 263 268 275 281 285 287 290 291 285
243 240 236 227 234 234 233 235 236 237 240 241 241 241 244 240 240 244 245 245 245 242 241 243 241 241 245 248 247 249 253 257 258 260 266 273 277 277 286 293 291 286 284
240 239 241 237 235 232 232 233 235 235 235 240 242 241 242 244 244 244 246 247 244 245 247 248 249 246 247 251 250 252 259 261 260 263 267 265 267 271 284 290 297 285 276
240 242 246 240 236 235 237 235 236 247 240 240 245 245 243 242 241 244 246 248 247 244 246 247 249 249 248 252 255 255 260 263 264 259 259 257 262 268 279 282 286 284 280
241 244 248 246 235 235 236 236 238 238 241 241 246 244 244 245 244 243 244 246 247 244 243 245 247 249 252 252 256 257 259 265 266 258 253 253 259 267 279 275 279 290 285
240 241 248 250 240 241 239 241 243 242 246 250 245 257 244 241 244 243 244 245 245 244 241 241 244 248 251 256 259 259 259 262 260 258 258 259 263 271 278 274 277 286 289
240 241 245 244 246 242 241 238 242 242 246 247 251 253 252 250 238 241 242 244 246 245 242 243 240 243 251 256 259 261 261 260 257 255 257 262 270 277 278 277 276 281 286
237 238 239 246 238 242 239 240 245 249 251 244 242 250 253 237 239 242 241 241 243 245 243 242 244 244 248 254 257 258 262 263 261 258 257 257 263 270 274 276 278 278 281
238 238 236 236 235 234 242 242 235 243 248 243 253 247 243 254 242 243 244 244 245 245 244 244 246 249 249 249 252 257 259 261 263 262 263 265 265 266 269 275 278 280 281
239 239 237 235 236 237 241 243 251 251 240 243 242 246 246 248 243 240 243 243 244 246 247 246 247 249 250 249 249 251 255 258 260 263 265 267 269 269 267 267 271 274 276
237 238 238 232 233 234 232 240 248 237 250 231 231 235 235 239 238 235 239 242 241 243 247 245 245 246 247 248 249 249 251 255 259 263 266 268 270 270 269 268 267 267 268
236 237 238 239 240 236 238 239 236 236 233 236 230 230 229 229 234 243 241 248 246 238 240 242 245 245 246 247 247 249 249 252 256 259 262 266 267 267 266 266 265 265 265
231 234 236 237 238 239 232 236 240 229 231 234 232 246 243 227 231 239 240 237 238 233 239 242 244 243 243 243 244 246 247 249 252 256 260 263 266 269 270 268 265 264 264
229 229 233 234 235 238 230 222 229 226 231 231 228 236 240 237 236 238 239 233 235 238 237 233 236 237 238 239 238 241 244 247 249 253 256 260 263 265 268 270 272 270 267
231 229 231 234 233 232 236 229 226 232 229 233 234 245 240 247 245 236 243 238 237 237 242 242 225 232 233 232 235 238 244 246 249 251 256 259 263 266 270 271 273 274 274
239 229 229 232 233 232 234 237 237 234 233 240 234 239 244 245 245 245 238 231 238 241 237 244 244 247 246 245 240 241 243 245 246 248 253 262 265 268 272 279 281 276 278
237 238 230 230 233 234 235 236 240 236 232 238 234 235 238 238 241 247 254 253 248 248 250 255 253 248 250 252 250 247 250 254 256 261 258 259 266 273 274 281 282 285 290
238 237 234 228 226 230 233 233 235 236 235 231 234 236 238 242 244 244 250 256 257 259 257 253 258 243 242 246 251 252 252 257 260 260 263 267 270 273 276 282 285 286 287
234 235 234 226 221 222 226 231 231 232 238 237 239 242 236 241 241 245 251 255 256 258 257 260 262 261 251 252 256 257 260 261 261 264 266 267 269 275 277 283 285 285 282